Regional Weather Roundup
Issued by NWS

Home | Current Version | Previous Version | Graphics & Text | Print | Product List | Glossary On
Versions: 1 2 3 4 5 6 7 8 9 10 11 12 13 14 15 16 17 18 19 20 21 22 23 24 25 26 27 28 29 30 31 32 33 34 35 36 37 38 39 40 41 42 43 44 45 46 47 48 49 50
000
ASUS43 KTOP 270159
RWRKS

WEATHER ROUNDUP FOR KANSAS
NATIONAL WEATHER SERVICE GOODLAND KS
900 PM CDT FRI AUG 26 2016

NOTE:  "FAIR" INDICATES FEW OR NO CLOUDS BELOW 12,000 FEET WITH NO
SIGNIFICANT WEATHER AND/OR OBSTRUCTIONS TO VISIBILITY.

KSZ001>006-013>018-027>032-041>047-270300-
NORTHWEST KANSAS

CITY           SKY/WX    TMP DP  RH WIND       PRES   REMARKS
GOODLAND       CLOUDY    59  50  72 CALM      30.07S
HAYS           CLEAR     72  59  64 E7        30.03R
HILL CITY      CLOUDY    68  63  84 E8        30.03F
RUSSELL        CLEAR     68  66  93 E9        30.02R
$$

KSZ061>065-074>080-084>089-270300-
SOUTHWEST KANSAS

CITY           SKY/WX    TMP DP  RH WIND       PRES   REMARKS
DODGE CITY     CLEAR     68  64  87 E6        30.02S
ELKHART          N/A     70  56  61 S3          N/A
GARDEN CITY    MOCLDY    71  62  73 E7        30.02R
GREAT BEND     CLEAR     72  61  68 E5        30.03R
LIBERAL        PTCLDY    75  61  60 E10       30.00F
$$

KSZ066>073-081>083-090>101-270300-
SOUTHEAST KANSAS

CITY           SKY/WX    TMP DP  RH WIND       PRES   REMARKS
CHANUTE        CLOUDY    73  70  90 S6        30.01R
COFFEYVILLE    CLOUDY    77  70  79 SE3       30.02R
HUTCHINSON     PTCLDY    73  68  84 CALM      30.02R
MEDICINE LODGE   N/A     77  65  66 E6        29.98R
NEWTON         CLEAR     74  69  85 SE3       30.03R
PARSONS        CLOUDY    75  68  78 CALM      30.03R
WICHITA INTL   PTCLDY    77  67  71 SE6       30.00R
WICHITA JABRA  CLEAR     76  67  73 S3        30.01R
WINFIELD       CLOUDY    76  68  76 S8        30.03R
$$

KSZ007>012-019>026-033>040-048>060-102>105-270300-
NORTHEAST KANSAS

CITY           SKY/WX    TMP DP  RH WIND       PRES   REMARKS
CONCORDIA      PTCLDY    70  65  84 CALM      30.04R
EMPORIA        CLOUDY    75  69  81 S3        30.00R
LAWRENCE       CLOUDY    70  70 100 CALM      30.00R
MANHATTAN      CLEAR     73  68  84 NW3       30.01R
OLATHE IND     TSTM      73  72  96 VRB7      30.00R FOG
OLATHE EXE     CLOUDY    77  72  84 VRB3G18   30.00R
SALINA         CLEAR     76  68  76 NE3       30.03R
TOPEKA BILLARD CLOUDY    72  69  90 NE3       30.00R
TOPEKA FORBES  MOCLDY    73  71  93 NE6       30.00R
$$




USA.gov is the U.S. government's official web portal to all federal, state and local government web resources and services.